Lexington Weather

Lexington, Massachusetts, USA

44°F
4/22/2024 9:14am 
  • Lexington Conditions: Clear
  • Temperature: 44.2°F / 6.8°CWarmer 3.4°F than last hour.
  • Dew Point: 26.8°FDecreased 1.2°Fsince last hour.
  • Relative Humidity: 50%Decreased 10.0% since last hour.
  • Wind: Calm, 10-min avg: Calm, gust: 4 mph
  • Barometer: 29.97 inRising 0.02  inHg/hr Rising Slowly
  • Visibility: 10 miles
  • Rain Today: 0.00 in
  •   

Regional Weather Roundup
for Boston, MA

        
000
ASUS41 KBOX 161110
RWRBOX

REGIONAL WEATHER ROUNDUP
NATIONAL WEATHER SERVICE BOSTON/NORTON MA
700 AM EDT TUE APR 16 2024

NOTE:  "FAIR" INDICATES FEW OR NO CLOUDS BELOW 12,000 FEET WITH NO 
SIGNIFICANT WEATHER AND/OR OBSTRUCTIONS TO VISIBILITY.

MAZALL-161200-
EASTERN MASSACHUSETTS
  
CITY           SKY/WX    TMP DP  RH WIND       PRES   REMARKS
BOSTON         PTCLDY    51  37  58 W8        30.04R                  
BEVERLY        SUNNY     42  39  89 W5        30.03R                  
LAWRENCE       CLEAR     41  38  89 CALM      30.05R                  
BEDFORD        CLEAR     37  36  96 CALM      30.03R                  
NORWOOD        CLEAR     48  42  80 CALM      30.05R                  
MARSHFIELD     SUNNY     46  41  81 VRB6      30.03R                  
PLYMOUTH       SUNNY     43  43 100 CALM      30.03R                  
TAUNTON        CLEAR     45  41  86 MISG      30.04R FOG              
NEW BEDFORD    CLEAR     44  43  96 CALM      30.04R FOG              
$$

MAZALL-161200-
CAPE COD AND THE ISLANDS
  
CITY           SKY/WX    TMP DP  RH WIND       PRES   REMARKS
FALMOUTH       SUNNY     45  45 100 NW5       30.03R                  
HYANNIS        SUNNY     50  40  68 NW5       30.02R                  
CHATHAM        SUNNY     47  43  86 CALM      30.03R                  
PROVINCETOWN   SUNNY     47  44  90 W8        30.04R                  
NANTUCKET      MOSUNNY   46  45  96 CALM      30.04R FOG              
MARTHAS VNYRD  SUNNY     47  46  97 W3        30.04R                  
$$
 
MAZALL-161200-
CENTRAL AND WESTERN MASSACHUSETTS
  
CITY           SKY/WX    TMP DP  RH WIND       PRES   REMARKS
WORCESTER      CLEAR     47  28  47 W12       30.04R                  
FITCHBURG      CLEAR     42  34  73 N3        30.05R                  
ORANGE         CLEAR     33  31  92 CALM      30.08R                  
SPRINGFIELD    CLEAR     36  34  93 CALM      30.05R                  
WESTFIELD      CLEAR     37  33  85 CALM      30.07R                  
NORTH ADAMS    CLEAR     33  30  88 CALM      30.10R                  
PITTSFIELD     CLEAR     40  31  70 W7        30.07R                  
$$
 
RIZALL-161200-
RHODE ISLAND
  
CITY           SKY/WX    TMP DP  RH WIND       PRES   REMARKS
PROVIDENCE     CLEAR     48  37  65 W5        30.05R                  
NEWPORT        CLEAR     47  38  71 CALM      30.05R                  
BLOCK ISLAND   CLEAR     50  33  52 W5        30.07R                  
SMITHFIELD     CLEAR     47  33  58 CALM      30.05R                  
WESTERLY       CLEAR     50  32  50 CALM      30.06R                  
$$
 
CTZALL-161200-
CONNECTICUT
  
CITY           SKY/WX    TMP DP  RH WIND       PRES   REMARKS
BRADLEY INTL   CLEAR     49  32  52 W6        30.07R                  
HARTFORD       CLEAR     44  36  73 CALM      30.07R                  
PLAINVILLE     FAIR      40  37  86 CALM      30.08R                  
BRIDGEPORT     CLEAR     47  37  68 CALM      30.09R                  
DANBURY        CLEAR     40  34  79 CALM      30.11R                  
GROTON         CLEAR     49  34  56 NW5       30.06R                  
NEW HAVEN      CLEAR     46  39  76 CALM      30.08R                  
CHESTER        CLEAR     50  28  43 NW5       30.08R                  
MERIDEN        CLEAR     40  34  79 CALM      30.09R                  
WILLIMANTIC    CLEAR     40  37  89 CALM      30.08R                  
OXFORD         CLEAR     42  32  67 NW5       30.09R                  
$$

MEZ002-015-021-024-NHZ003-005-008-011-012-014-VTZ005-008-161200-
NORTHERN NEW ENGLAND
  
CITY           SKY/WX    TMP DP  RH WIND       PRES   REMARKS
PORTLAND ME    MOSUNNY   38  35  89 W3        30.01R                  
BANGOR ME      PTSUNNY   39  33  79 S5        29.95R                  
CONCORD NH     FOG       34  34 100 CALM      30.05R VSB 1/2          
MANCHESTER NH  CLEAR     38  36  92 CALM      30.03R                  
NASHUA NH      CLEAR     38  38 100 CALM      30.05R                  
PORTSMOUTH NH  SUNNY     43  40  91 CALM      30.02R                  
JAFFREY NH     CLEAR     35  31  85 CALM      30.04R                  
KEENE NH       FOG       34  34 100 CALM      30.08R VSB 1/4          
BURLINGTON VT  PTCLDY    38  35  89 CALM      30.08R                  
MT. WASHINGTON BLWGSNOW  23  23 100 NW62G69     N/A  VSB 1/16WCI   0  
$$

NYZ052-076-161200-
EASTERN NEW YORK
  
CITY           SKY/WX    TMP DP  RH WIND       PRES   REMARKS
ALBANY         CLEAR     45  33  63 NW3       30.11R                  
NEW YORK CITY  CLEAR     54  35  48 NW10      30.11R                  
$$
 
ANZALL-161200-
MARINE OBSERVATIONS
  
STATION/POSITION TIME  TEMP    WIND        PRES    VSBY  WAVE
                       AIR SEA DIR/SP/G                  HT/PER
                 (UTC) (F)     (DEG/KT/KT) (MB)    (MI)  (FT/S)
BOSTON BUOY      1050   46     260/  8/ 10 1016.5R         2/10
BUZZARDS BAY     1000   51     300/ 11/ 11 1017.2R
NANTUCKET SOUND  1050   49 46  280/  4/  6 1016.6R         1/ 8
MASS BAY-STELLWA 0904   46 44  280/  6/  8 1015.4R  1 7/8  2/11
ISLE OF SHOALS   1000   46     270/ 11/ 11 1015.2R
S OF BLOCK IS    1056      45                N/A           4/ 9
$$

......................KEY.........................
  SKY/WX - SKY CONDITION/PRESENT WEATHER
  TMP    - TEMPERATURE IN FAHRENHEIT
  DWPT   - DEWPOINT IN FAHRENHEIT
  RH     - RELATIVE HUMIDITY IN PERCENT
  WIND   - DIRECTION AND SPEED IN MPH
  PRES   - MEAN SEA LEVEL PRESSURE IN INCHES OF HG
  WCI    - WIND CHILL INDEX
  VSB    - VISIBILITY IN MILES
  HX     - HEAT INDEX
  TC     - TEMPERATURE IN CELSIUS
  VRB    - VARIABLE WIND DIRECTION
  N/A    - NOT AVAILABLE
  
      

Other recent Regional Weather Roundups

Mon Apr 22, 9:10am EDT

Mon Apr 22, 8:10am EDT

Mon Apr 22, 7:10am EDT

Mon Apr 22, 6:10am EDT

Mon Apr 22, 5:10am EDT

Mon Apr 22, 4:10am EDT

Mon Apr 22, 3:10am EDT

Mon Apr 22, 2:10am EDT

Mon Apr 22, 1:10am EDT

Mon Apr 22, 12:10am EDT

Sun Apr 21, 11:10pm EDT

Sun Apr 21, 10:10pm EDT

Sun Apr 21, 9:10pm EDT

Sun Apr 21, 8:10pm EDT

Sun Apr 21, 7:10pm EDT

Sun Apr 21, 6:10pm EDT

Sun Apr 21, 5:10pm EDT

Sun Apr 21, 4:10pm EDT

Sun Apr 21, 3:10pm EDT

Sun Apr 21, 2:10pm EDT

Sun Apr 21, 1:10pm EDT

Sun Apr 21, 12:10pm EDT

Sun Apr 21, 11:10am EDT

Sun Apr 21, 10:10am EDT

Sun Apr 21, 9:10am EDT

Sun Apr 21, 8:10am EDT

Sun Apr 21, 7:10am EDT

Sun Apr 21, 6:10am EDT

Sun Apr 21, 5:10am EDT

Sun Apr 21, 4:10am EDT

Sun Apr 21, 3:10am EDT

Sun Apr 21, 2:10am EDT

Sun Apr 21, 1:10am EDT

Sun Apr 21, 12:10am EDT

Sat Apr 20, 11:10pm EDT

Sat Apr 20, 10:10pm EDT

Sat Apr 20, 9:10pm EDT

Sat Apr 20, 8:10pm EDT

Sat Apr 20, 7:10pm EDT

Sat Apr 20, 6:10pm EDT

Sat Apr 20, 5:10pm EDT

Sat Apr 20, 4:10pm EDT

Sat Apr 20, 3:10pm EDT

Sat Apr 20, 2:10pm EDT

Sat Apr 20, 1:10pm EDT

Sat Apr 20, 12:10pm EDT

Sat Apr 20, 11:10am EDT

Sat Apr 20, 10:10am EDT

Sat Apr 20, 9:10am EDT

Sat Apr 20, 8:10am EDT

Sat Apr 20, 7:10am EDT

Sat Apr 20, 6:10am EDT

Sat Apr 20, 5:10am EDT

Sat Apr 20, 4:10am EDT

Sat Apr 20, 3:10am EDT

Sat Apr 20, 2:10am EDT

Sat Apr 20, 1:10am EDT

Sat Apr 20, 12:10am EDT

Fri Apr 19, 11:10pm EDT

Fri Apr 19, 10:10pm EDT

Fri Apr 19, 9:10pm EDT

Fri Apr 19, 8:10pm EDT

Fri Apr 19, 7:10pm EDT

Fri Apr 19, 6:10pm EDT

Fri Apr 19, 5:10pm EDT

Fri Apr 19, 4:10pm EDT

Fri Apr 19, 3:10pm EDT

Fri Apr 19, 2:10pm EDT

Fri Apr 19, 1:10pm EDT

Fri Apr 19, 12:10pm EDT

Fri Apr 19, 11:10am EDT

Fri Apr 19, 10:10am EDT

Fri Apr 19, 9:10am EDT

Fri Apr 19, 8:10am EDT

Fri Apr 19, 7:10am EDT

Fri Apr 19, 6:10am EDT

Fri Apr 19, 5:10am EDT

Fri Apr 19, 4:10am EDT

Fri Apr 19, 3:10am EDT

Fri Apr 19, 2:10am EDT

Fri Apr 19, 1:10am EDT

Fri Apr 19, 12:10am EDT

Thu Apr 18, 11:10pm EDT

Thu Apr 18, 10:10pm EDT

Thu Apr 18, 9:10pm EDT

Thu Apr 18, 8:10pm EDT

Thu Apr 18, 7:10pm EDT

Thu Apr 18, 6:10pm EDT

Thu Apr 18, 5:10pm EDT

Thu Apr 18, 4:10pm EDT

Thu Apr 18, 3:10pm EDT

Thu Apr 18, 2:10pm EDT

Thu Apr 18, 1:10pm EDT

Thu Apr 18, 12:10pm EDT

Thu Apr 18, 11:10am EDT

Thu Apr 18, 10:10am EDT

Thu Apr 18, 9:10am EDT

Thu Apr 18, 8:10am EDT

Thu Apr 18, 7:10am EDT

Thu Apr 18, 6:10am EDT

Thu Apr 18, 5:10am EDT

Thu Apr 18, 4:10am EDT

Thu Apr 18, 3:10am EDT

Thu Apr 18, 2:10am EDT

Thu Apr 18, 1:10am EDT

Thu Apr 18, 12:10am EDT

Wed Apr 17, 11:10pm EDT

Wed Apr 17, 10:10pm EDT

Wed Apr 17, 9:10pm EDT

Wed Apr 17, 8:10pm EDT

Wed Apr 17, 7:10pm EDT

Wed Apr 17, 6:10pm EDT

Wed Apr 17, 5:10pm EDT

Wed Apr 17, 4:10pm EDT

Wed Apr 17, 3:10pm EDT

Wed Apr 17, 2:10pm EDT

Wed Apr 17, 1:10pm EDT

Wed Apr 17, 12:10pm EDT

Wed Apr 17, 11:10am EDT

Wed Apr 17, 10:10am EDT

Wed Apr 17, 9:10am EDT

Wed Apr 17, 8:10am EDT

Wed Apr 17, 7:10am EDT

Wed Apr 17, 6:10am EDT

Wed Apr 17, 5:10am EDT

Wed Apr 17, 4:10am EDT

Wed Apr 17, 3:10am EDT

Wed Apr 17, 2:10am EDT

Wed Apr 17, 1:10am EDT

Wed Apr 17, 12:10am EDT

Tue Apr 16, 11:10pm EDT

Tue Apr 16, 10:10pm EDT

Tue Apr 16, 9:10pm EDT

Tue Apr 16, 8:10pm EDT

Tue Apr 16, 7:10pm EDT

Tue Apr 16, 6:10pm EDT

Tue Apr 16, 5:10pm EDT

Tue Apr 16, 4:10pm EDT

Tue Apr 16, 3:10pm EDT

Tue Apr 16, 2:10pm EDT

Tue Apr 16, 1:10pm EDT

Tue Apr 16, 12:10pm EDT

Tue Apr 16, 11:10am EDT

Tue Apr 16, 10:10am EDT

Tue Apr 16, 9:10am EDT

Tue Apr 16, 8:10am EDT

Tue Apr 16, 6:10am EDT

Tue Apr 16, 5:10am EDT

Tue Apr 16, 4:10am EDT

Tue Apr 16, 3:10am EDT

Tue Apr 16, 2:10am EDT

Tue Apr 16, 1:10am EDT

Tue Apr 16, 12:10am EDT

Mon Apr 15, 11:10pm EDT

Mon Apr 15, 10:10pm EDT

Mon Apr 15, 9:10pm EDT

Mon Apr 15, 8:10pm EDT

Mon Apr 15, 7:10pm EDT

Mon Apr 15, 6:10pm EDT

Mon Apr 15, 5:10pm EDT

Mon Apr 15, 4:10pm EDT

Mon Apr 15, 3:10pm EDT

Mon Apr 15, 2:10pm EDT

Mon Apr 15, 1:10pm EDT

Mon Apr 15, 12:10pm EDT

Mon Apr 15, 11:10am EDT

Mon Apr 15, 10:10am EDT